Wind_Speed
25 26 26 27 29 30 31 31 30 30 30 31 31 31 31 32 32 32 31 30 29 28 27 26 25 25 23 22 21 20 19 19 18 17 16 14 13 13 12 11 10 9 7 7 6 5 5 4 4
26 27 27 28 29 31 32 32 31 31 31 31 31 32 32 33 34 33 32 32 31 30 29 29 28 27 26 24 23 22 22 20 19 19 18 16 15 14 13 12 11 10 9 8 7 6 6 5 4
26 27 27 28 29 30 32 32 32 32 32 32 33 33 34 34 34 34 34 33 33 32 32 31 30 29 28 27 25 24 24 22 21 20 19 18 17 16 15 13 12 11 10 9 8 7 7 6 6
26 26 27 28 29 29 30 31 32 32 32 33 34 35 35 35 35 35 35 35 35 34 34 33 32 31 30 29 28 26 25 24 23 22 20 19 18 17 16 15 14 13 12 10 10 9 8 8 7
25 26 26 27 28 29 30 31 31 32 32 33 34 35 36 36 37 36 36 36 37 37 36 35 34 34 33 31 30 29 27 25 24 24 22 21 20 18 17 16 15 14 13 12 11 11 10 9 8
25 25 26 27 27 28 29 30 31 32 32 33 33 34 35 37 38 38 37 36 37 38 38 38 36 36 35 33 31 30 29 27 26 26 24 23 21 20 19 17 16 15 15 13 13 12 11 10 10
24 25 26 26 27 27 28 29 30 32 33 33 33 33 34 36 38 38 38 37 37 38 39 40 39 38 37 36 33 32 30 30 28 27 26 25 23 22 20 19 18 17 16 15 14 14 13 11 11
24 24 24 25 25 26 27 27 28 30 31 32 33 33 33 36 38 39 39 38 38 38 39 40 41 39 38 38 35 33 32 31 30 28 27 27 25 23 22 21 19 18 17 16 16 15 14 13 12
24 24 24 25 25 25 25 26 26 27 29 30 32 33 33 34 37 38 40 39 38 38 39 40 40 40 40 39 37 35 34 32 31 30 29 27 26 25 23 22 21 20 18 18 17 16 15 15 14
24 24 24 25 25 25 25 25 25 26 26 28 31 32 32 33 35 37 39 39 39 39 39 40 40 41 41 41 39 36 35 33 32 32 30 28 27 26 25 24 22 21 20 19 18 17 17 16 16
24 24 24 24 24 24 24 24 24 25 25 27 28 30 30 31 33 36 38 40 40 39 39 40 41 42 41 42 41 38 37 35 33 32 32 30 28 26 25 25 24 23 22 21 20 19 18 18 18
24 24 24 24 24 23 23 23 23 23 24 25 26 28 30 30 32 35 38 40 39 40 40 40 41 42 42 43 43 41 39 38 35 33 32 31 29 27 26 26 25 24 24 23 22 21 20 19 19
23 23 23 23 23 23 22 21 21 21 22 23 24 25 27 29 30 33 35 38 39 39 40 41 41 42 42 43 44 42 39 38 36 35 35 33 31 29 27 27 26 26 25 24 23 23 22 21 21
23 24 23 23 23 22 22 21 21 20 21 21 21 21 23 27 29 31 34 37 38 39 40 41 42 43 43 44 44 41 39 38 37 35 34 34 32 30 28 28 27 26 26 25 25 24 24 23 22
24 24 23 23 22 21 21 20 19 19 19 18 18 20 21 24 27 29 32 36 37 39 40 41 40 42 44 45 45 41 40 39 37 36 34 33 32 30 29 28 27 28 27 27 26 25 24 25 24
24 23 23 22 22 21 21 19 18 18 17 16 17 18 19 21 25 28 29 33 36 38 39 41 41 41 43 44 45 42 40 38 37 35 33 32 32 32 30 29 28 29 29 29 29 27 27 26 25
24 23 22 22 22 21 20 18 17 16 16 15 15 15 18 20 23 25 26 29 32 36 38 39 41 41 41 43 42 40 38 38 36 35 34 33 33 33 32 30 29 29 29 30 29 29 28 28 28
24 23 22 21 21 21 20 17 16 16 15 14 14 14 16 20 22 24 26 26 30 34 37 39 39 39 39 40 40 40 39 38 36 35 35 34 33 32 32 30 29 29 30 31 31 31 30 30 29
23 22 21 21 21 21 19 16 15 15 14 13 13 12 14 18 21 23 25 26 30 33 37 39 39 39 39 40 39 37 38 39 37 36 35 34 33 32 32 31 31 31 32 33 33 33 32 32 31
22 22 21 20 21 20 18 16 15 14 13 12 11 10 11 16 20 22 24 26 27 29 33 36 36 38 39 40 39 37 37 38 38 37 36 34 33 33 32 32 31 32 32 33 34 35 35 34 33
22 22 21 20 20 19 18 16 14 13 12 11 10 9 10 14 17 20 23 24 25 28 31 32 33 34 36 38 38 38 36 37 38 36 35 34 33 33 33 34 34 33 33 34 35 35 36 35 35
21 21 20 20 19 18 17 15 13 12 11 10 9 9 9 11 14 18 21 21 23 26 29 30 31 32 33 35 36 35 35 36 37 36 34 32 32 32 34 34 35 35 34 34 35 36 37 37 37
20 20 20 19 18 17 17 15 14 12 10 9 7 7 7 8 11 15 19 21 23 25 27 28 30 32 33 33 33 34 33 35 36 37 35 33 33 33 34 34 35 36 36 35 35 35 37 37 37
20 20 19 18 18 17 16 16 15 12 9 9 8 7 6 7 9 13 16 20 22 24 25 26 26 28 30 31 30 31 31 33 34 35 36 35 35 35 34 35 35 36 37 38 38 38 38 38 39
20 20 19 19 18 17 15 14 15 13 11 10 10 8 7 7 9 12 16 18 21 22 22 24 25 26 27 28 29 29 29 30 32 32 34 35 35 35 36 35 35 36 37 38 39 39 39 39 40
20 20 19 18 18 16 14 14 14 14 12 11 10 8 7 7 8 11 14 16 18 20 21 23 25 26 28 28 29 29 28 29 30 31 33 33 34 34 36 36 36 37 37 39 40 40 40 41 41
20 19 19 18 17 16 15 14 13 13 12 10 9 8 8 7 7 9 11 13 16 19 19 22 24 26 28 29 30 30 29 30 31 32 32 32 32 33 34 35 37 38 38 39 40 41 41 41 42
21 20 19 18 17 16 15 14 14 13 13 11 9 8 7 7 7 7 10 12 15 17 19 21 23 26 28 30 31 32 33 32 32 33 34 34 34 34 35 34 36 38 39 40 41 41 41 42 42
21 20 19 18 16 16 15 14 15 14 13 11 10 9 8 8 7 8 9 12 15 17 20 21 23 25 27 30 31 32 32 34 34 34 35 36 36 36 37 38 38 39 40 40 41 42 43 44 45
21 20 19 18 17 16 15 14 14 14 14 13 12 12 10 10 10 10 11 13 15 17 19 22 24 26 28 30 33 33 34 35 36 36 36 37 38 39 40 40 39 39 40 41 42 43 44 45 46
Wind_Direction
282 279 276 274 272 270 269 268 266 262 259 255 253 250 247 244 241 240 239 237 235 233 231 229 228 226 224 223 222 222 220 220 218 217 216 214 212 212 210 209 209 209 210 210 215 218 221 224 230
284 281 278 275 273 272 270 268 265 262 259 255 252 249 247 244 242 240 239 237 235 233 232 230 229 227 226 224 223 223 222 221 220 219 217 215 213 212 211 211 211 211 211 213 218 222 224 228 232
287 284 280 277 276 275 272 268 265 262 259 255 252 249 246 243 241 239 238 238 235 233 232 230 229 228 226 225 223 223 223 222 221 220 217 216 215 213 213 213 213 213 213 216 221 226 230 232 237
291 286 282 280 278 276 273 269 265 262 259 256 253 250 247 243 241 239 238 238 236 233 231 230 229 228 226 225 224 223 223 222 222 220 218 218 218 217 216 216 216 216 216 219 224 228 231 233 241
295 290 286 283 282 279 274 270 267 263 260 257 253 251 248 245 241 238 237 237 236 234 231 230 229 229 227 225 225 224 223 222 221 220 220 220 220 219 218 217 218 220 220 223 226 229 230 235 245
298 293 289 288 286 282 277 272 268 264 261 258 254 251 248 245 242 240 238 237 235 233 231 230 228 228 226 225 224 224 223 221 221 221 221 223 222 221 220 219 220 222 224 226 228 230 232 239 247
302 297 293 291 289 284 281 277 271 265 261 258 256 252 248 245 243 239 237 235 233 231 229 228 227 226 225 224 223 223 223 222 223 222 222 223 223 223 223 221 222 224 226 228 229 229 233 240 247
307 302 298 296 292 288 285 280 275 268 262 259 256 254 249 245 242 238 236 234 232 230 229 228 227 226 223 221 221 221 222 222 222 222 223 224 224 224 224 222 223 225 226 228 230 232 237 243 249
311 306 302 300 297 292 288 283 278 273 266 260 257 255 250 244 240 237 235 232 230 229 228 227 226 225 222 220 219 219 220 220 222 223 223 223 223 223 224 224 225 226 228 230 232 235 239 246 253
316 311 307 304 301 296 292 286 279 274 270 263 258 255 248 242 239 237 235 231 228 228 227 226 224 224 221 219 217 218 219 219 221 222 221 221 222 222 224 225 226 227 229 232 234 237 240 245 255
320 316 313 309 305 300 296 290 283 277 271 266 259 253 247 242 238 235 232 230 229 227 226 225 223 222 221 218 216 216 217 219 221 221 223 222 222 222 224 226 227 228 230 233 236 239 243 249 256
322 320 317 314 309 305 301 294 288 282 275 268 264 254 247 242 238 235 232 229 226 224 223 222 221 221 219 217 216 215 218 220 222 222 222 224 223 223 225 228 229 230 232 235 238 241 246 255 258
326 324 321 317 313 309 305 299 293 287 281 273 265 257 247 241 238 234 231 229 225 223 222 220 220 218 218 217 216 216 220 221 222 223 223 224 225 225 227 228 230 232 234 236 240 242 248 254 259
329 328 325 323 319 314 310 305 298 291 284 276 265 257 248 240 236 233 229 226 224 222 221 220 221 219 218 218 217 219 218 219 221 224 223 224 226 228 230 232 234 236 237 239 242 244 250 255 259
331 330 329 327 324 319 314 310 303 297 289 280 269 259 251 241 235 231 227 224 223 222 220 218 220 219 218 218 217 218 218 217 221 224 224 226 227 229 231 233 236 239 241 243 243 247 253 256 261
332 332 332 331 328 323 317 315 309 301 295 284 273 261 253 240 232 229 226 223 221 220 219 219 219 218 217 217 217 218 218 218 222 225 227 227 228 230 231 234 237 239 242 244 246 249 255 258 262
336 336 336 335 332 327 322 319 313 306 299 289 279 264 251 240 230 225 225 221 218 218 217 218 217 216 215 215 215 218 219 220 223 226 227 228 229 231 234 236 239 240 243 245 247 251 256 259 262
339 338 338 339 337 333 329 323 314 309 304 295 285 268 253 240 229 224 221 218 216 217 216 215 216 217 216 215 217 220 220 220 222 225 226 228 230 232 235 236 239 241 244 246 248 252 257 260 262
341 342 340 339 337 336 333 327 319 313 309 299 289 273 255 240 229 225 222 218 216 214 215 217 219 219 219 218 219 219 221 221 223 225 227 229 233 235 238 240 241 243 246 248 251 254 258 261 262
342 343 343 342 338 336 334 332 327 320 316 306 294 276 255 241 233 227 224 219 216 214 215 216 219 221 222 222 221 222 224 224 224 225 228 232 236 238 241 244 246 248 250 251 253 256 259 262 263
341 343 344 345 342 340 339 337 334 329 326 319 305 286 266 246 236 228 225 222 219 217 216 217 217 220 221 222 223 224 225 226 226 228 232 235 239 242 245 247 250 252 255 256 257 259 260 262 264
339 342 344 345 346 345 344 340 340 335 331 324 315 298 274 253 237 228 227 220 218 217 214 217 219 223 222 223 224 225 228 225 228 231 233 236 238 241 247 249 252 255 257 260 261 262 262 263 265
335 338 342 346 347 348 348 346 348 340 337 328 317 308 286 259 242 231 228 222 216 217 217 216 220 223 223 222 224 227 229 229 231 233 233 235 237 241 246 250 253 256 258 260 262 263 264 264 266
331 334 338 341 344 348 349 347 349 347 343 332 314 308 295 264 245 231 227 223 221 221 219 219 219 223 225 224 225 227 229 230 233 235 237 239 241 245 248 251 253 256 259 262 263 264 266 266 267
325 329 333 336 340 344 348 348 348 344 341 334 321 310 302 277 243 228 223 221 219 219 218 219 221 226 226 227 229 230 233 233 235 238 241 243 245 249 251 252 255 257 261 263 264 264 267 268 270
320 322 327 330 332 338 343 343 343 341 339 333 325 316 307 289 258 236 229 226 220 219 220 222 224 226 227 229 231 232 233 234 236 241 244 245 248 251 252 254 257 259 261 262 264 266 267 269 270
313 315 319 321 324 330 337 340 340 338 339 333 324 319 309 289 265 238 232 233 230 225 228 228 227 229 230 232 234 236 236 238 240 244 246 249 253 254 254 256 258 260 262 264 264 265 267 270 272
305 307 309 314 319 324 328 332 333 333 335 330 320 311 306 293 280 256 243 239 238 235 235 234 236 236 235 236 238 240 241 242 245 247 249 252 254 257 258 259 261 262 263 265 265 267 269 271 273
297 299 299 303 309 315 318 321 322 326 329 327 318 308 305 297 282 269 256 249 245 244 245 246 245 245 243 241 242 244 245 245 248 250 253 254 257 259 260 262 264 265 265 265 267 270 272 273 275
290 292 292 293 296 301 309 311 314 318 320 319 316 310 301 291 281 270 260 254 251 248 250 254 254 252 250 248 247 248 248 250 251 252 255 257 260 261 262 265 266 266 267 268 270 272 273 274 276
Height
5819 5818 5817 5816 5815 5814 5813 5813 5813 5814 5814 5815 5816 5817 5819 5821 5824 5827 5828 5829 5831 5833 5836 5838 5840 5841 5843 5845 5846 5848 5849 5851 5852 5853 5854 5855 5856 5857 5858 5859 5860 5861 5861 5862 5863 5863 5864 5864 5865
5812 5811 5810 5809 5807 5806 5806 5805 5805 5806 5806 5807 5808 5809 5811 5813 5815 5818 5820 5823 5825 5828 5830 5833 5835 5837 5839 5840 5842 5844 5846 5847 5849 5850 5851 5852 5853 5854 5855 5857 5858 5859 5859 5860 5861 5862 5862 5863 5863
5805 5804 5803 5801 5799 5799 5798 5797 5797 5797 5797 5798 5800 5801 5803 5805 5808 5810 5813 5816 5819 5821 5824 5827 5829 5832 5834 5836 5838 5840 5842 5844 5845 5846 5848 5849 5850 5851 5852 5854 5855 5856 5857 5858 5859 5860 5861 5861 5862
5799 5797 5795 5794 5792 5791 5789 5788 5788 5788 5789 5790 5791 5793 5795 5797 5800 5803 5805 5808 5811 5814 5817 5820 5823 5826 5828 5831 5833 5835 5838 5839 5841 5842 5844 5845 5847 5848 5849 5851 5852 5853 5855 5856 5857 5858 5859 5859 5860
5792 5790 5787 5785 5784 5782 5781 5779 5779 5779 5780 5781 5782 5784 5786 5789 5791 5794 5797 5800 5803 5807 5810 5813 5816 5819 5823 5825 5828 5830 5833 5835 5837 5839 5840 5842 5843 5845 5846 5847 5849 5851 5852 5853 5854 5855 5856 5857 5858
5786 5783 5780 5778 5776 5774 5772 5771 5771 5770 5771 5772 5773 5775 5777 5779 5782 5785 5788 5791 5795 5798 5802 5806 5809 5812 5816 5819 5822 5825 5827 5830 5832 5834 5836 5838 5839 5841 5843 5844 5846 5847 5849 5850 5851 5853 5854 5855 5855
5780 5776 5774 5771 5769 5766 5765 5763 5762 5761 5762 5762 5763 5765 5768 5770 5772 5776 5779 5782 5786 5789 5793 5797 5801 5805 5809 5812 5816 5819 5822 5825 5827 5829 5831 5833 5835 5837 5839 5841 5842 5844 5846 5847 5848 5850 5851 5852 5852
5773 5771 5767 5764 5762 5759 5757 5755 5753 5752 5752 5753 5754 5755 5758 5760 5763 5766 5770 5773 5777 5781 5785 5789 5793 5797 5801 5805 5809 5812 5816 5819 5822 5824 5826 5828 5831 5833 5835 5837 5839 5841 5842 5844 5845 5847 5848 5849 5850
5768 5766 5761 5758 5755 5752 5749 5747 5745 5744 5744 5744 5744 5746 5748 5751 5753 5757 5760 5764 5768 5772 5776 5780 5784 5788 5793 5797 5801 5805 5809 5812 5816 5819 5821 5823 5826 5828 5831 5833 5835 5837 5839 5840 5842 5843 5845 5846 5846
5763 5760 5756 5752 5748 5745 5742 5740 5738 5737 5736 5736 5736 5737 5739 5741 5744 5747 5751 5755 5760 5764 5768 5772 5776 5781 5785 5790 5794 5798 5803 5806 5810 5813 5816 5819 5821 5824 5826 5829 5831 5833 5835 5836 5838 5839 5841 5842 5843
5758 5754 5750 5746 5742 5738 5736 5733 5730 5729 5729 5728 5727 5728 5730 5732 5735 5738 5741 5745 5750 5755 5759 5764 5768 5773 5778 5782 5787 5792 5796 5800 5804 5807 5810 5814 5817 5819 5822 5825 5827 5829 5831 5832 5834 5836 5837 5838 5838
5753 5748 5744 5740 5736 5732 5729 5726 5724 5722 5721 5720 5719 5720 5722 5724 5727 5729 5732 5736 5742 5747 5751 5756 5761 5766 5770 5775 5781 5785 5789 5793 5797 5801 5805 5808 5812 5815 5817 5820 5822 5824 5826 5828 5830 5831 5832 5833 5834
5749 5744 5739 5735 5731 5727 5723 5720 5717 5715 5714 5712 5712 5712 5714 5716 5719 5721 5724 5728 5733 5739 5743 5748 5753 5758 5763 5768 5774 5779 5783 5787 5792 5795 5799 5803 5806 5810 5813 5815 5817 5819 5822 5823 5825 5826 5827 5829 5829
5744 5739 5735 5730 5725 5721 5718 5714 5711 5710 5707 5705 5705 5705 5706 5708 5711 5713 5717 5721 5725 5730 5736 5741 5747 5752 5756 5761 5767 5772 5777 5781 5785 5789 5793 5797 5801 5804 5807 5810 5812 5814 5816 5818 5820 5821 5823 5824 5824
5741 5736 5731 5726 5721 5717 5713 5710 5706 5703 5701 5700 5699 5699 5700 5701 5704 5706 5710 5714 5718 5723 5728 5734 5739 5745 5750 5754 5760 5765 5771 5775 5780 5784 5788 5792 5795 5799 5802 5805 5807 5809 5811 5813 5815 5816 5818 5819 5819
5737 5733 5728 5722 5717 5712 5710 5706 5702 5698 5696 5695 5694 5694 5694 5695 5697 5700 5703 5707 5712 5717 5722 5727 5733 5738 5743 5748 5754 5760 5765 5770 5775 5779 5783 5786 5790 5793 5796 5800 5802 5804 5806 5808 5810 5811 5812 5813 5814
5734 5729 5724 5719 5714 5709 5705 5702 5698 5695 5692 5691 5689 5689 5689 5690 5692 5695 5697 5702 5706 5711 5716 5721 5727 5733 5737 5742 5748 5754 5760 5765 5769 5774 5778 5781 5785 5788 5791 5794 5796 5798 5800 5802 5804 5805 5806 5807 5808
5731 5726 5721 5716 5711 5706 5701 5698 5695 5691 5689 5687 5685 5684 5685 5686 5687 5689 5692 5696 5701 5706 5711 5716 5722 5727 5732 5738 5744 5749 5754 5759 5764 5768 5773 5776 5780 5783 5785 5788 5790 5792 5794 5796 5798 5799 5800 5801 5802
5728 5723 5718 5714 5708 5703 5699 5695 5692 5688 5686 5684 5682 5680 5680 5681 5682 5684 5687 5691 5696 5700 5706 5711 5717 5722 5728 5733 5738 5743 5748 5753 5758 5763 5767 5771 5774 5777 5780 5782 5784 5786 5788 5790 5791 5793 5793 5794 5795
5726 5721 5716 5712 5706 5701 5697 5693 5690 5686 5683 5681 5679 5678 5677 5678 5679 5681 5683 5686 5691 5696 5701 5706 5711 5717 5722 5728 5733 5739 5744 5748 5752 5757 5761 5764 5768 5771 5774 5776 5778 5780 5782 5783 5785 5786 5787 5787 5788
5724 5719 5714 5710 5705 5699 5695 5692 5688 5684 5681 5679 5677 5676 5675 5676 5677 5678 5680 5683 5688 5692 5697 5702 5707 5712 5717 5723 5728 5734 5738 5742 5747 5751 5755 5758 5762 5765 5767 5770 5772 5773 5775 5777 5777 5778 5779 5780 5780
5722 5718 5713 5708 5703 5699 5695 5690 5687 5683 5680 5678 5676 5675 5674 5674 5675 5676 5678 5681 5685 5689 5693 5698 5703 5708 5713 5718 5723 5729 5733 5737 5741 5745 5748 5752 5755 5758 5761 5763 5765 5767 5768 5769 5770 5771 5772 5772 5772
5720 5716 5711 5706 5702 5698 5693 5689 5687 5683 5680 5678 5676 5674 5673 5673 5674 5675 5677 5679 5682 5686 5690 5695 5700 5705 5710 5714 5719 5723 5727 5731 5735 5738 5742 5745 5748 5751 5753 5755 5757 5759 5760 5762 5762 5763 5763 5764 5763
5718 5714 5710 5705 5701 5697 5693 5689 5686 5682 5680 5677 5675 5673 5672 5671 5673 5674 5676 5678 5680 5684 5688 5693 5697 5702 5706 5710 5714 5719 5722 5725 5729 5732 5735 5739 5742 5744 5746 5747 5749 5751 5752 5753 5754 5755 5755 5755 5755
5715 5712 5708 5703 5699 5696 5692 5688 5686 5682 5679 5677 5674 5673 5672 5671 5672 5673 5675 5677 5679 5682 5685 5689 5693 5698 5702 5706 5709 5713 5716 5719 5722 5726 5729 5732 5735 5736 5738 5739 5741 5742 5743 5744 5745 5745 5745 5746 5745
5712 5709 5706 5702 5697 5695 5691 5687 5685 5681 5678 5676 5673 5672 5671 5670 5671 5672 5673 5675 5677 5679 5682 5686 5690 5694 5697 5701 5705 5708 5711 5714 5717 5720 5723 5725 5727 5729 5730 5731 5732 5733 5734 5735 5736 5736 5736 5736 5735
5708 5705 5703 5699 5696 5692 5690 5687 5684 5680 5677 5674 5672 5671 5670 5670 5670 5671 5672 5673 5675 5677 5679 5682 5686 5689 5693 5696 5699 5702 5705 5708 5711 5713 5716 5718 5720 5721 5722 5723 5724 5724 5725 5726 5726 5726 5726 5725 5725
5704 5701 5699 5696 5693 5690 5688 5685 5683 5679 5676 5674 5672 5670 5669 5669 5669 5669 5670 5671 5673 5675 5677 5680 5683 5685 5688 5691 5694 5696 5699 5702 5704 5707 5709 5710 5712 5713 5714 5714 5715 5715 5715 5715 5716 5716 5715 5715 5714
5699 5697 5694 5691 5690 5687 5685 5686 5681 5678 5675 5673 5671 5669 5668 5667 5667 5667 5668 5670 5671 5672 5674 5677 5679 5681 5683 5685 5687 5690 5692 5695 5697 5699 5701 5702 5703 5704 5705 5705 5705 5705 5705 5705 5705 5704 5704 5703 5702
5693 5692 5690 5688 5686 5684 5682 5684 5678 5676 5673 5671 5669 5667 5666 5666 5665 5665 5665 5666 5668 5669 5671 5672 5674 5675 5677 5679 5681 5683 5685 5687 5688 5690 5692 5693 5694 5695 5695 5695 5695 5695 5695 5695 5694 5694 5693 5691 5690